Location: D�derode
(51.8092°N, 10.1065°E)
Time: 07:05:57
(UTC+00:00)

Cosmos 2366 rocket - Pass Details

Date: 01 December 2020
Orbit: 955 x 997 km, 82.9° (Epoch: 23 January)

Event Time Altitude Azimuth Distance (km) Brightness Sun altitude
Rises 16:27:46 0° 350° (N) 3,674 6.9 -11.0°
Reaches altitude 10° 16:30:19 10° 353° (N) 2,717 6.2 -11.4°
Maximum altitude 16:36:31 69° 77° (ENE) 1,026 3.9 -12.3°
Drops below altitude 10° 16:42:37 10° 161° (SSE) 2,681 6.3 -13.2°
Sets 16:45:07 0° 164° (SSE) 3,621 7.0 -13.6°
